Flag for U.S.A. Weather past 2 weeks in Lexington, North Carolina, U.S.A.

Now
66 °F

Sunny.


Feels Like: 66 °F
Forecast: 44 / 66 °F
Wind: 6 mph from North

Location: Davidson County Airport

Current Time: Apr 27, 2015 at 6:32:30 PM

Latest Report: Apr 27, 2015 at 5:15 PM


Visibility: 10 mi

Pressure: 29.83 "Hg

Humidity: 30%

Dew point: 33 °F

Location of LexingtonLocation

Historic Weather in Lexington — Graph

°F

Lexington temperature yesterday

Maximum temperature yesterday: 54 °F (at 6:35 PM)
Minimum temperature yesterday: 44 °F (at 6:55 AM)
Average temperature yesterday: 48 °F

Past Weeks' High & Low Weather Summary

 TemperatureHumidityPressure
High77 °F (Apr 18, 3:15 PM)99% (Apr 14, 5:55 AM)30.38 "Hg (Apr 14, 5:55 AM)
Low38 °F (Apr 24, 5:15 AM)16% (Apr 23, 4:35 PM)29.58 "Hg (Apr 26, 3:55 AM)
Average59 °F75%29.98 "Hg
* Reported Apr 12 4:15 PM — Apr 27 4:55 PM, Lexington, Weather by CustomWeather, © 2015

Note: Actual official high and low records may vary slightly from our data, if they occured in-between our weather recording intervals... More about our weather records

Advertising

Lexington weather history for previous 24 hours

 ConditionsComfort  
Time TempWeatherWind HumidityBarometerVisibility
4:55 PM
Mon, Apr 27
65 °FSunny.6 mph29%29.83 "Hg10 mi
4:35 PM66 °FScattered clouds.7 mph29%29.83 "Hg10 mi
4:15 PM66 °FScattered clouds.5 mph29%29.83 "Hg10 mi
3:55 PM66 °FSunny.3 mph29%29.83 "Hg10 mi
3:15 PM66 °FSunny.6 mph31%29.81 "Hg10 mi
2:55 PM65 °FSunny.No wind30%29.81 "Hg10 mi
2:35 PM66 °FSunny.6 mph32%29.81 "Hg10 mi
2:15 PM65 °FScattered clouds.7 mph33%29.82 "Hg10 mi
1:55 PM64 °FScattered clouds.9 mph35%29.81 "Hg10 mi
1:35 PM63 °FSunny.6 mph34%29.83 "Hg10 mi
1:15 PM63 °FSunny.No wind36%29.84 "Hg10 mi
12:55 PM62 °FSunny.6 mph37%29.85 "Hg10 mi
12:35 PM61 °FSunny.5 mph39%29.86 "Hg10 mi
12:15 PM62 °FSunny.3 mph37%29.86 "Hg10 mi
11:55 AM62 °FSunny.7 mph37%29.87 "Hg10 mi
11:15 AM61 °FScattered clouds.8 mph37%29.88 "Hg10 mi
10:55 AM60 °FSunny.5 mph46%29.87 "Hg10 mi
10:35 AM58 °FSunny.3 mph52%29.86 "Hg10 mi
10:15 AM57 °FSunny.3 mph54%29.86 "Hg10 mi
9:55 AM55 °FSunny.3 mph59%29.86 "Hg10 mi
9:35 AM54 °FSunny.3 mph62%29.86 "Hg10 mi
9:15 AM53 °FSunny.5 mph67%29.85 "Hg10 mi
8:55 AM51 °FSunny.3 mph76%29.84 "Hg10 mi
8:35 AM49 °FSunny.No wind89%29.84 "Hg10 mi
8:15 AM46 °FSunny.No wind96%29.83 "Hg10 mi
7:55 AM44 °FSunny.No wind97%29.83 "Hg10 mi
7:35 AM41 °FSunny.No wind97%29.82 "Hg10 mi
7:15 AM39 °FClear.No wind99%29.81 "Hg7 mi
6:55 AM38 °FFog.No wind98%29.80 "Hg5 mi
6:35 AM38 °FClear.No wind98%29.80 "Hg7 mi
6:15 AM39 °FClear.No wind98%29.79 "Hg7 mi
5:55 AM39 °FFog.No wind98%29.79 "Hg5 mi
5:35 AM40 °FClear.No wind99%29.78 "Hg7 mi
5:15 AM39 °FClear.No wind98%29.77 "Hg10 mi
4:55 AM40 °FFog.No wind98%29.76 "Hg5 mi
4:35 AM40 °FFog.No wind98%29.77 "Hg4 mi
4:15 AM41 °FClear.No wind98%29.77 "Hg7 mi
3:55 AM42 °FFog.No wind98%29.77 "Hg5 mi
3:35 AM42 °FFog.No wind98%29.77 "Hg5 mi
3:15 AM43 °FClear.No wind98%29.78 "Hg7 mi
2:55 AM44 °FPassing clouds.No wind98%29.78 "Hg7 mi
2:35 AM44 °FOvercast.No wind97%29.79 "Hg10 mi
2:15 AM44 °FOvercast.No wind98%29.78 "Hg10 mi
1:55 AM44 °FOvercast.No wind98%29.80 "Hg10 mi
1:35 AM44 °FPassing clouds.No wind97%29.80 "Hg10 mi
1:15 AM44 °FPassing clouds.No wind98%29.80 "Hg10 mi
12:55 AM45 °FClear.No wind97%29.80 "Hg10 mi
12:35 AM45 °FClear.No wind97%29.80 "Hg10 mi
12:15 AM46 °FClear.No wind97%29.79 "Hg10 mi
11:15 PM
Sun, Apr 26
48 °FOvercast.No wind94%29.80 "Hg10 mi
10:55 PM48 °FOvercast.No wind91%29.79 "Hg10 mi
10:35 PM49 °FOvercast.No wind92%29.79 "Hg10 mi
10:15 PM49 °FOvercast.No wind93%29.78 "Hg10 mi
9:55 PM49 °FOvercast.No wind89%29.78 "Hg10 mi
9:35 PM49 °FOvercast.No wind92%29.78 "Hg10 mi
9:15 PM49 °FOvercast.No wind91%29.78 "Hg10 mi
8:55 PM50 °FOvercast.No wind89%29.78 "Hg10 mi
8:35 PM51 °FOvercast.No wind84%29.77 "Hg10 mi
8:15 PM51 °FOvercast.No wind83%29.76 "Hg10 mi
7:55 PM52 °FMore clouds than sun.No wind79%29.75 "Hg10 mi
7:35 PM52 °FOvercast.No wind79%29.74 "Hg10 mi
7:15 PM53 °FPartly sunny.3 mph75%29.73 "Hg10 mi
6:55 PM54 °FScattered clouds.No wind72%29.73 "Hg10 mi
6:35 PM54 °FPartly sunny.6 mph71%29.72 "Hg10 mi
Weather by CustomWeather, © 2015

See weather overviewHow to use our weather pages